San Juan, PR

3:07 PM AST on February 10, 2016 (GMT -0400)
Luis Munoz Marin International

Weather History for TJSJ - November, 2013

Change the Weather History Date:

Wednesday, November 13, 2013

  Actual Average Record
Temperature  
Mean Temperature 84 °F 81 °F  
Max Temperature 90 °F 86 °F 91 °F (2009)
Min Temperature 77 °F 75 °F 67 °F (1919)
Degree Days  
Heating Degree Days 0 0  
Month to date heating degree days 0 0  
Since 1 July heating degree days 0 0  
Cooling Degree Days 19 16  
Month to date cooling degree days 222 211  
Year to date cooling degree days 5316 5170  
Growing Degree Days 34 (Base 50)    
Moisture  
Dew Point 72 °F    
Average Humidity 69    
Maximum Humidity 85    
Minimum Humidity 52    
Precipitation  
Precipitation 0.00 in 0.23 in 1.86 in (1958)
Month to date precipitation 1.19 2.92  
Year to date precipitation 69.67 47.90  
Sea Level Pressure  
Sea Level Pressure 29.95 in    
Wind  
Wind Speed 8 mph (ESE)    
Max Wind Speed 22 mph    
Max Gust Speed 25 mph    
Visibility 10 miles    
Events      
T = Trace of Precipitation, MM = Missing Value Source: NWS Daily Summary

Daily Weather History Graph

Daily Weather History Graph

Search for Another Location

Airport or City:

Trip Planner

Search our weather history database for the weather conditions in past years. The results will help you decide how hot, cold, wet, or windy it might be!

Date:

Astronomy

Nov. 13, 2013 Rise Set
Actual Time 6:29 AM AST 5:46 PM AST
Civil Twilight 6:06 AM AST 6:09 PM AST
Nautical Twilight 5:40 AM AST 6:36 PM AST
Astronomical Twilight 5:14 AM AST 7:02 PM AST
Moon 3:04 PM AST (11/13) 2:50 AM AST (11/13)
Length of Visible Light 12h 03m
Length of Day
11h 17m
Waxing Gibbous, 84% of the Moon is Illuminated
Nov 13
Waxing Gibbous
Nov 17
Full
Nov 25
Last Quarter
Dec 2
New
Dec 9
First Quarter

Hourly Weather History & Observations

Time (AST) Temp. Heat Index Dew Point Humidity Pressure Visibility Wind Dir Wind Speed Gust Speed Precip Events Conditions
12:56 AM 79.0 °F - 72.0 °F 79% 29.96 in 10.0 mi East 10.4 mph - N/A   Clear
1:56 AM 79.0 °F - 72.0 °F 79% 29.94 in 10.0 mi East 6.9 mph - N/A   Clear
2:56 AM 79.0 °F - 72.0 °F 79% 29.92 in 10.0 mi ESE 3.5 mph - N/A   Partly Cloudy
3:56 AM 79.0 °F - 72.0 °F 79% 29.91 in 10.0 mi ESE 5.8 mph - N/A   Partly Cloudy
4:56 AM 78.1 °F - 72.0 °F 81% 29.92 in 10.0 mi SSE 3.5 mph - N/A   Partly Cloudy
5:56 AM 78.1 °F - 72.0 °F 81% 29.94 in 10.0 mi ESE 4.6 mph - N/A   Scattered Clouds
6:56 AM 77.0 °F - 72.0 °F 84% 29.96 in 9.0 mi Calm Calm - N/A   Partly Cloudy
7:56 AM 80.1 °F 83.8 °F 72.0 °F 76% 29.98 in 9.0 mi SE 3.5 mph - N/A   Scattered Clouds
8:56 AM 84.0 °F 89.6 °F 72.0 °F 67% 29.99 in 9.0 mi East 10.4 mph - N/A   Scattered Clouds
9:56 AM 86.0 °F 93.0 °F 73.0 °F 65% 30.00 in 9.0 mi East 13.8 mph - N/A   Scattered Clouds
10:56 AM 87.1 °F 93.6 °F 72.0 °F 61% 29.99 in 9.0 mi East 18.4 mph 21.9 mph N/A   Scattered Clouds
11:56 AM 88.0 °F 92.9 °F 70.0 °F 55% 29.97 in 9.0 mi East 15.0 mph - N/A   Scattered Clouds
12:56 PM 89.1 °F 94.1 °F 70.0 °F 53% 29.94 in 9.0 mi East 11.5 mph 21.9 mph N/A   Scattered Clouds
1:56 PM 88.0 °F 94.7 °F 72.0 °F 59% 29.91 in 9.0 mi East 16.1 mph - N/A   Partly Cloudy
2:56 PM 88.0 °F 94.7 °F 72.0 °F 59% 29.91 in 10.0 mi East 17.3 mph 21.9 mph N/A   Partly Cloudy
3:56 PM 86.0 °F 91.5 °F 71.1 °F 61% 29.91 in 10.0 mi East 13.8 mph - N/A   Partly Cloudy
4:56 PM 84.9 °F 90.1 °F 71.1 °F 63% 29.91 in 10.0 mi East 13.8 mph - N/A   Partly Cloudy
5:56 PM 82.0 °F 86.3 °F 71.1 °F 69% 29.93 in 10.0 mi East 11.5 mph - N/A   Scattered Clouds
6:56 PM 82.9 °F 87.5 °F 71.1 °F 67% 29.94 in 10.0 mi ESE 5.8 mph - N/A   Partly Cloudy
7:56 PM 82.0 °F 86.3 °F 71.1 °F 69% 29.97 in 10.0 mi SE 3.5 mph - N/A   Partly Cloudy
8:56 PM 82.0 °F 86.3 °F 71.1 °F 69% 29.98 in 10.0 mi SE 3.5 mph - N/A   Partly Cloudy
9:56 PM 81.0 °F 84.4 °F 70.0 °F 69% 29.99 in 10.0 mi Calm Calm - N/A   Scattered Clouds
10:56 PM 81.0 °F 84.9 °F 71.1 °F 72% 29.99 in 10.0 mi Calm Calm - N/A   Scattered Clouds
11:56 PM 80.1 °F 83.6 °F 71.1 °F 74% 29.98 in 10.0 mi Calm Calm - N/A   Scattered Clouds